Weather Roundup
Issued by NWS Chicago, IL

Home | Current Version | Previous Version | Text Only | Print | Product List | Glossary On
Versions: 1 2 3 4 5 6 7 8 9 10 11 12 13 14 15 16 17 18 19 20 21 22 23 24 25 26 27 28 29 30 31 32 33 34 35 36 37 38 39 40 41 42 43 44 45 46 47 48 49 50
000
NZUS59 KLOT 071321
HRRLOT

CHICAGO AREA WEATHER ROUNDUP
NATIONAL WEATHER SERVICE CHICAGO/ROMEOVILLE IL
800 AM CDT TUE JUL 07 2015

NOTE: "FAIR" INDICATES FEW OR NO CLOUDS BELOW 12,000 FEET WITH NO
SIGNIFICANT WEATHER AND/OR OBSTRUCTIONS TO VISIBILITY.

* THESE STATIONS ARE NOT UNDER NWS QUALITY CONTROL. THEY ALSO MAY NOT
  REPORT WEATHER SUCH AS PRECIPITATION OR FOG.

ILZ005-006-012>014-019>023-071400-
NORTHEAST ILLINOIS

CITY           SKY/WX    TMP DP  RH WIND       PRES   REMARKS
OHARE          CLOUDY    59  55  87 N15G23    29.97R FOG
MIDWAY         LGT RAIN  59  54  83 N15       29.96R FOG
AURORA         CLOUDY    62  57  83 NE15      29.97R HAZE
LANSING*       CLOUDY    58  55  89 N17G23    29.96R FOG
JOLIET*        LGT RAIN  61  59  95 NE16G22   29.96R
WAUKEGAN       CLOUDY    57  51  80 N12G24    29.96R
DUPAGE AIRPORT CLOUDY    60  56  86 N15       29.96R FOG
WHEELING       CLOUDY    59  54  83 N12G18    29.97R
KANKAKEE*      LGT RAIN  61  60  96 NE14G21   29.92R
MORRIS*        RAIN      60  59  96 NE8       29.93R
LEWIS AIRPORT* LGT RAIN  58  57  96 NE22      29.96R
NORTHERLY IS     N/A     57  54  89 N22         N/A
$$

WIZ051-052-058>065-066-070>072-071400-
SOUTHEAST WISCONSIN

CITY           SKY/WX    TMP DP  RH WIND       PRES   REMARKS
MILWAUKEE      CLOUDY    59  54  83 N10G22    29.98R
KENOSHA*       CLOUDY    59  52  77 N12G20    29.98R
RACINE*        CLOUDY    58  52  80 N15G22    29.99R
BURLINGTON     CLOUDY    56  54  92 N7        29.98S
WAUKESHA       CLOUDY    55  54  94 N6        29.99R FOG
WEST BEND      PTSUNNY   59  52  77 N9        29.99S
$$

INZ001>003-010>013-019-020-071400-
NORTHWEST INDIANA

CITY           SKY/WX    TMP DP  RH WIND       PRES   REMARKS
GARY*          LGT RAIN N/A N/A N/A N14G32    29.97R
MICHIGAN CITY* NOT AVBL
RENSSELAER*    NOT AVBL
VALPARAISO     LGT RAIN  60  58  92 N9G17     29.93R FOG
$$

LMZ740>746-071400-
SOUTHERN LAKE MICHIGAN

STATION/POSITION TIME  SKY/WX   TEMP WIND        PRES    VSBY
                                AIR  DIR/SP/G
                 (UTC)          (F)  (DEG/KT/KT) (MB)    (MI)
HARRISON CRIB    1300            56  360/ 24/ 28   N/A
BURNHAM HARBOR   1300            57  350/ 19/ 22   N/A
CALUMET HARBOR   1200            59  340/ 18/ 24   N/A
BURNS HARBOR     1200            61  360/ 17/ 21 1013.5R
MICHIGAN CITY    1300            59  340/ 21/ 23   N/A
$$

ABBREVIATIONS USED IN REMARKS
   TC - TEMPERATURE IN CELSIUS
  WCI - WIND CHILL INDEX
   HX - HEAT INDEX
  VSB - VISIBILITY
$$


USA.gov is the U.S. government's official web portal to all federal, state and local government web resources and services.